Hourly Data Report for September 06, 2017

All times are specified in Local Standard Time (LST). Add 1 hour to adjust for Daylight Saving Time where and when it is observed.

GJOA HAVEN A
NUNAVUT

68°38'08.000" N
95°51'01.000" W
46.90 m
2302337
71597
YHK

Download Data

Hourly Data (September 2017)
Hourly Data Report for September 6, 2017
Temp Definition
°C
Dew Point Temp Definition
°C
Rel Hum Definition
%
Wind Dir Definition
10's deg

Wind Spd Definition
km/h
Visibility Definition
km
Stn Press Definition
kPa
Hmdx Definition


Wind Chill Definition


Weather Definition


TIME
00:00 Legend Double Dagger 1.7 -0.1 88 31 9 16.1 101.29     LegendNANA
01:00 Legend Double Dagger 1.5 -0.4 87 29 5 16.1 101.28     LegendNANA
02:00 Legend Double Dagger 1.3 -0.3 89 32 5 16.1 101.28     LegendNANA
03:00 Legend Double Dagger 1.2 -0.4 89 34 8 16.1 101.28     LegendNANA
04:00 Legend Double Dagger 1.0 -0.3 91 35 8 16.1 101.27     LegendNANA
05:00 Legend Double Dagger 1.0 -0.2 92 4 5 16.1 101.26     LegendNANA
06:00 Legend Double Dagger 1.4 -0.2 89 6 4 16.1 101.26     LegendNANA
07:00 Legend Double Dagger 1.7 0.4 91 7 5 16.1 101.22     LegendNANA
08:00 Legend Double Dagger 1.8 0.5 91 LegendMM 4 16.1 101.20     LegendNANA
09:00 Legend Double Dagger 2.4 0.6 88 11 5 16.1 101.19     LegendNANA
10:00 Legend Double Dagger 2.9 0.0 81 16 13 16.1 101.17     LegendNANA
11:00 Legend Double Dagger 2.6 2.1 96 20 17 6.4 101.14     Rain,Fog
12:00 Legend Double Dagger 3.0 0.1 81 17 17 16.1 101.13     LegendNANA
13:00 Legend Double Dagger 3.6 0.1 78 19 13 16.1 101.10     LegendNANA
14:00 Legend Double Dagger 3.6 0.3 79 17 17 16.1 101.05     LegendNANA
15:00 Legend Double Dagger 4.1 0.3 76 18 18 16.1 101.01     LegendNANA
16:00 Legend Double Dagger 4.2 0.5 77 18 21 16.1 100.94     LegendNANA
17:00 Legend Double Dagger 3.8 1.0 82 15 15 16.1 100.90     LegendNANA
18:00 Legend Double Dagger 3.6 1.3 85 14 17 16.1 100.85     LegendNANA
19:00 Legend Double Dagger 3.0 1.4 89 13 15 16.1 100.78     LegendNANA
20:00 Legend Double Dagger 3.2 2.0 92 13 15 16.1 100.71     LegendNANA
21:00 Legend Double Dagger 3.8 2.4 90 15 13 16.1 100.65     LegendNANA
22:00 Legend Double Dagger 4.6 2.8 88 16 13 16.1 100.59     LegendNANA
23:00 Legend Double Dagger 4.8 3.2 89 15 13 16.1 100.52     LegendNANA

Notes on Data Quality.

Legend

  • E = Estimated
  • M = Missing
  • NA = Not Available
  • ‡ = Partner data that is not subject to review by the National Climate Archives
Date modified: